Preview of NWS' New Version of Forecast
This preview is not operational and should not be used for support decisions.

Regional Weather Roundup (RWR)

Issued by National Weather Service (NWS)

                            
000
ASUS46 KSEW 182010
RWRWA 

WASHINGTON REGIONAL WEATHER ROUNDUP
NATIONAL WEATHER SERVICE SEATTLE WA
100 PM PDT WED SEP 18 2019

NOTE:"FAIR" INDICATES FEW OR NO CLOUDS BELOW 12,000 FEET WITH NO 
SIGNIFICANT WEATHER AND/OR OBSTRUCTIONS TO VISIBILITY.

WAZ507-509-555>559-182100-
SEATTLE, TACOMA, EVERETT, AND VICINITY
  
CITY           SKY/WX    TMP DP  RH WIND       PRES   REMARKS
EVERETT        MOSUNNY   62  51  67 N8        29.90S                  
BOEING FIELD   PTSUNNY   64  53  67 NW5       29.89R                  
RENTON         MOSUNNY   64  54  69 N5        29.88S                  
SEATAC AIRPORT MOSUNNY   65  53  65 VRB3      29.89R                  
JBLM-MCCHORD   CLOUDY    63  60  91 W3        29.89R                  
PUYALLUP       CLOUDY    59  59 100 CALM      29.89S                  
BREMERTON      MOSUNNY   63  52  67 NE7       29.89S                  
JBLM-FT LEWIS  PTSUNNY   60  60  99 CALM      29.88S                  
TACOMA NARROWS PTSUNNY   60  55  83 CALM      29.89R                  
$$
 
WAZ001-503-506-510-514-515-182100-
NORTH INTERIOR
  
CITY           SKY/WX    TMP DP  RH WIND       PRES   REMARKS
BELLINGHAM     PTSUNNY   63  54  72 VRB5      29.90R                  
FRIDAY HARBOR  MOSUNNY   62  53  72 VRB6G20   29.91S                  
EASTSOUND      MOSUNNY   59  55  88 VRB7      29.91R                  
PORT ANGELES   PTSUNNY   58  56  93 E6        29.93R                  
EDIZ HOOK      MOCLDY    57  55  91 S5        29.92S                  
PORT TOWNSEND  CLOUDY    61  54  77 VRB7G14   29.90R                  
NAS WHIDBEY    PTSUNNY   65  54  67 W7        29.94S                  
ARLINGTON      CLOUDY    64  55  72 NW8       29.89R                  
BURLINGTON     MOSUNNY   64  55  72 NW10      29.90R                  
$$
 
WAZ020-022-039-040-504-511-512-182100-
SOUTHWEST INTERIOR
  
CITY           SKY/WX    TMP DP  RH WIND       PRES   REMARKS
SHELTON        PTSUNNY   66  52  60 NW5       29.86S                  
OLYMPIA        PTSUNNY   65  54  67 CALM      29.88S                  
CHEHALIS       FAIR      66  55  68 N7        29.88R                  
KELSO          CLOUDY    64  53  67 SE3       29.88R                  
VANCOUVER      CLOUDY    60  54  80 SE3       29.87S                  
SCAPPOOSE, OR  MOSUNNY   63  54  72 SE3       29.86S                  
PORTLAND, OR   PTSUNNY   60  55  83 N3        29.87F                  
$$
 
WAZ021-516-517-182100-
WASHINGTON COAST
  
CITY           SKY/WX    TMP DP  RH WIND       PRES   REMARKS
FORKS          PTSUNNY   63  53  70 N8        29.89R                  
HOQUIAM        CLOUDY    62  57  83 SE5       29.89R                  
ASTORIA, OR    MOSUNNY   64  55  72 N7        29.87R                  
$$
 
WAZ019-023-024-040-567>569-182100-
CASCADE MOUNTAINS AND COLUMBIA GORGE
  
CITY           SKY/WX    TMP DP  RH WIND       PRES   REMARKS
STAMPEDE PASS  NOT AVBL                                               
TROUTDALE, OR  CLOUDY    62  53  72 E5        29.87S                  
HOOD RIVER, OR PTCLDY    63  52  67 NW5       29.87S                  
THE DALLES, OR LGT RAIN  62  54  74 SW7       29.85R                  
$$

WAZ026-027-041>044-520-521-182100-
EAST SLOPES
  
CITY           SKY/WX    TMP DP  RH WIND       PRES   REMARKS
OMAK           CLOUDY    59  50  72 N10       29.89S                  
WENATCHEE      CLOUDY    59  49  69 CALM      29.85S                  
ELLENSBURG     MOSUNNY   65  47  52 NE5       29.84S                  
YAKIMA         MOSUNNY   66  47  50 W3        29.84S                  
SUNNYSIDE ARPT PTCLDY    67  51  56 NW3       29.83F                  
YAKIMA TC      FAIR      65  49  58 W7        29.82S                  
$$

WAZ028-034-035-182100-
COLUMBIA BASIN
  
CITY           SKY/WX    TMP DP  RH WIND       PRES   REMARKS
EPHRATA        CLOUDY    65  49  56 N6        29.84F                  
MOSES LAKE     PTSUNNY   69  48  47 N5        29.84F                  
PASCO          MOSUNNY   71  47  42 VRB3      29.83F                  
RICHLAND ARPT  CLEAR     73  46  38 W5        29.83S                  
HERMISTON, OR  MOSUNNY   70  48  45 NW7       29.83F                  
$$

WAZ036>038-182100-
NORTHEAST WASHINGTON
  
CITY           SKY/WX    TMP DP  RH WIND       PRES   REMARKS
SPOKANE GEIGER PTSUNNY   60  47  61 S3        29.87S                  
SPOKANE FELTS  CLOUDY    60  51  72 E7        29.88S                  
FAIRCHILD AFB  LGT RAIN  58  49  72 W6        29.87S                  
COEURDALENE,ID LGT RAIN  57  50  77 SW3       29.90S                  
DEER PARK      CLOUDY    58  51  78 NE7       29.89S                  
$$

WAZ029>033-182100-
SOUTHEAST WASHINGTON
  
CITY           SKY/WX    TMP DP  RH WIND       PRES   REMARKS
PULLMAN        CLOUDY    60  45  57 VRB6      29.89S                  
LEWISTON, ID   CLOUDY    67  46  47 N7        29.84S                  
WALLA WALLA    MOSUNNY   68  46  45 VRB6      29.84S                  
PENDLETON, OR  LGT RAIN  63  46  54 NW7       29.85R                  
$$